STARLINK-31663, 59576

Orbit data source: Space-Track

STARLINK-31663, 59576 is a payload satellite owned by SpaceX/Seattle (US) in LEO that was launched on Tue, 23 Apr 2024 UTC via an FALCON 9 launch vehicle from the Air Force Eastern Test Range (AFETR). Payload-class satellites include a variety of spacecraft equipped with specific instruments for various scientific and technological missions. These include communications satellites like Starlink; space stations such as the ISS; scientific satellites like the Hubble; Earth observation satellites from companies like Planet Labs, Umbra, and HawkEye 360; GPS; miniature CubeSats for education and research; and military/defense satellites.

Loading next visibility...
Identifier
59576, 2024-076N
Orbit
LEO
Country
Flag of USUS
Related business
Manufacturer
SpaceX/Seattle
Mission
Operational Commercial Communications
Bus & Motor
STARLINK V2M, Unknown motor
Mass
730 kg wet, ~700 kg dry
Launch date (UTC)
2024-04-23 (2 years ago)
Launch vehicle
FALCON 9
Launch site
Air Force Eastern Test Range (AFETR)
Object type
Payload
Rocket body
Debris
Shape & HBR
Box + 2 Pan, 17.7 m
Radar Cross Section
33.884 m², Large (>1 m²)

Expand to show TLE details & history
Last TLE update: 11 hours ago

TLE from 11 hours ago
0 STARLINK-31663
1 59576U 24076N   25305.49343715  .00004982  00000-0  19048-3 0  9990
2 59576  43.0039  13.2508 0001362 282.9984  77.0716 15.27571705 86895
Epoch: 2025-11-01T11:50Z
TLE epoch observation values (Epoch: 2025-11-01T11:50:32.969Z)
Latitude
-0°
Longitude
154.5907°
Altitude
482.641 km
Speed
7.626 km/s
True Right ascension
00h 53m 00s
True Declination
0° 00' 00"
Sunlit
Object was in full shadow at epoch
Visualization orbit readout
Latitude
Unknown
Longitude
Unknown
Altitude
Unknown
Speed
Unknown
Apparent Right ascension
Unknown
Apparent Declination
Unknown
Sunlit
N/A
Visualization observer readout
Local Sidereal Time
18:33:38
Azimuth
Unknown
Elevation
Unknown
Doppler factor
Unknown
Orbital elements
Apogee altitude
485.953 km
Perigee altitude
484.084 km
Semi-major axis
6,863.155 km
Eccentricity
0.00014
Inclination
43.0039°
RAAN
13.2508°
Arg. of periapsis
282.9984°
True anomaly
77.08681°
Mean anomaly
77.0716°
Eccentric anomaly
77.07921°
Mean motion
3.81731 °/min
Orbital period
94.31 mins
BSTAR
0.00019048
Loading maneuver chart data...
Computing Atmospheric mass density...
Loading historical data...
Loading historical data...
Loading historical data...
Loading historical data...
Loading historical data...
Loading historical data...
Loading historical data...

Documentation

Showing up to 5 results
|